Wind_Speed
66 67 67 67 66 65 65 65 65 65 65 67 68 68 70 73 78 81 83 82 83 83 82 82 82 81 82 84 87 88 89 89 91 94 95 94 92 90 88 86 85 83 80 77 76 74 72 71 70 69 68 68 67 66 65 64 63 61 60 60 61 61 60 57 54 54 54 52 51 50 48 47 46 45 43 41 42 42 43 44 45 46 47 48 49 52 51
66 66 66 66 66 64 63 63 63 62 62 64 65 65 66 69 74 78 80 81 81 82 81 81 81 81 82 85 87 88 90 90 91 94 96 96 94 92 90 88 87 85 82 80 78 77 74 73 71 70 70 70 69 67 67 66 65 63 62 62 63 62 61 60 58 57 56 55 54 52 52 51 48 45 45 44 44 44 44 45 47 48 49 49 51 54 54
65 65 65 65 65 64 62 61 61 60 60 61 62 62 62 65 70 74 77 78 79 80 80 81 81 81 83 85 87 88 90 91 91 94 97 98 97 95 93 91 89 87 84 82 80 78 76 74 73 72 72 72 71 70 69 68 67 65 64 64 64 63 62 61 60 58 57 57 56 56 56 53 48 47 48 46 45 45 45 46 47 49 50 51 53 55 56
65 65 65 65 64 63 62 60 60 59 58 58 59 59 59 61 66 70 73 75 77 78 79 80 80 81 82 84 86 88 90 91 92 94 97 99 99 98 96 93 91 89 87 85 82 80 78 77 75 74 74 74 73 72 71 69 68 67 66 65 64 63 63 63 62 61 60 60 58 59 58 55 51 50 50 49 47 47 47 48 48 50 51 52 55 56 57
66 66 66 65 64 63 61 60 59 58 57 56 56 57 57 58 62 66 69 72 74 76 78 78 79 80 81 83 85 88 90 92 93 94 97 100 101 100 98 96 94 91 89 86 84 82 80 78 77 76 75 75 75 74 73 71 70 69 68 66 65 65 64 64 64 63 62 61 60 60 60 57 54 53 52 51 50 49 49 49 50 52 52 54 57 57 58
67 67 66 65 65 64 62 60 59 57 56 56 55 55 55 56 59 63 66 69 71 73 75 77 77 79 80 82 85 88 90 92 93 94 97 100 102 102 101 98 96 93 90 88 86 84 82 80 79 78 77 76 76 75 75 74 72 71 69 68 67 67 66 66 65 65 64 64 63 62 61 59 57 56 54 53 52 51 51 51 52 54 54 56 58 58 59
68 68 67 66 66 64 63 61 59 57 57 56 54 53 53 53 56 60 63 65 68 71 73 75 76 78 79 81 84 87 90 92 94 95 97 100 103 103 102 99 97 95 92 90 88 86 84 82 81 80 78 78 77 77 76 76 75 73 71 70 69 69 68 67 67 66 66 65 65 64 63 61 60 58 56 55 54 54 54 54 55 56 56 58 59 59 60
70 69 68 67 66 65 64 62 60 58 58 56 54 52 51 52 54 57 60 63 65 68 70 72 74 76 78 81 84 87 90 92 94 95 97 100 102 104 103 101 99 97 95 92 90 88 86 84 82 81 80 79 79 78 79 79 77 75 74 72 71 71 69 69 68 68 67 67 66 66 65 63 62 60 58 56 56 57 57 56 57 58 58 59 60 59 61
71 70 69 68 67 66 65 63 61 60 59 57 54 52 51 50 52 55 58 60 62 64 67 70 72 74 76 79 83 86 89 92 94 95 97 100 102 103 103 102 100 99 96 94 91 89 87 86 84 83 82 81 80 80 81 80 79 78 76 74 73 72 70 70 69 68 68 69 68 67 67 65 64 61 59 59 60 60 59 58 58 59 60 60 60 60 61
72 72 70 69 69 68 66 65 63 61 60 57 55 53 51 50 50 53 55 58 60 61 64 66 69 71 74 77 81 85 89 92 94 95 97 99 101 103 103 103 102 100 97 95 93 91 89 88 87 85 84 83 82 82 82 82 80 79 78 76 75 73 72 71 70 70 70 71 70 69 68 66 64 62 62 63 63 63 61 60 61 61 61 61 60 61 62
74 73 72 71 70 69 68 66 64 63 61 59 55 53 51 50 50 51 53 55 57 59 61 63 65 68 71 75 79 84 88 91 93 95 96 98 100 102 103 103 102 100 98 96 94 92 91 89 88 87 86 85 84 83 83 83 82 81 80 78 76 75 73 72 72 72 72 73 72 70 69 67 65 65 66 66 66 65 63 62 62 62 61 61 62 63 63
75 75 74 72 71 70 69 68 66 64 63 60 57 54 52 50 49 50 51 53 55 56 57 59 62 65 69 72 77 81 85 89 91 94 95 97 99 100 101 102 101 100 99 97 95 93 92 91 90 89 87 86 86 85 84 84 83 82 81 80 79 77 75 74 74 74 74 74 74 71 69 68 68 68 69 68 67 67 65 64 64 63 62 63 64 65 65
75 77 76 74 72 72 70 69 68 66 64 62 58 55 53 51 49 49 49 51 52 54 54 56 58 61 65 69 73 78 82 86 89 92 94 96 98 99 100 100 100 99 99 97 96 94 93 92 91 90 89 88 87 86 86 85 85 84 83 81 80 79 77 76 76 76 75 75 74 72 71 71 70 70 70 69 69 69 67 65 66 66 64 66 68 68 68
75 77 77 76 74 73 72 71 69 68 65 63 60 57 54 52 50 48 48 49 50 51 52 53 55 57 61 65 70 74 79 82 86 89 92 94 96 97 98 98 98 98 98 97 96 95 94 93 92 91 89 88 88 87 86 86 85 85 84 83 82 80 79 78 78 77 76 76 75 75 75 73 71 71 71 70 70 70 68 67 68 68 68 69 70 70 70
75 78 78 77 75 74 73 72 71 69 67 65 62 59 56 53 51 49 47 47 48 50 50 50 52 55 58 63 67 71 75 79 82 86 89 92 93 95 96 96 96 96 96 96 96 96 95 94 92 91 90 89 88 88 87 87 86 86 85 84 83 82 81 79 78 78 77 76 76 77 76 74 73 73 72 70 70 70 69 68 69 70 70 71 73 73 73
75 78 79 79 77 75 74 73 72 70 68 66 64 61 58 55 53 50 47 47 48 49 49 49 50 52 56 60 64 68 72 76 79 83 86 88 90 92 93 94 94 94 94 95 95 95 94 93 92 91 90 90 89 89 89 88 88 87 86 85 84 84 82 80 79 79 78 77 77 78 76 75 75 74 72 71 71 71 70 69 70 72 72 73 75 76 75
76 78 79 80 79 76 75 74 73 72 70 68 65 63 61 58 55 52 49 47 47 48 48 48 48 50 54 58 62 66 70 73 76 79 82 85 87 89 91 92 93 93 93 92 93 93 93 92 91 90 90 90 90 90 90 90 89 87 86 86 85 84 83 81 80 79 79 79 78 77 76 76 76 75 74 72 72 72 71 70 72 74 74 74 78 79 77
76 79 80 81 80 79 76 75 74 73 72 70 67 65 63 60 57 54 51 48 47 48 48 47 47 49 53 57 61 65 68 72 74 77 79 82 85 87 89 90 91 91 91 91 91 91 91 91 91 91 90 90 91 91 90 89 88 88 88 87 86 85 83 82 81 80 80 80 79 77 77 77 76 76 75 74 73 73 72 71 74 76 75 75 78 79 79
77 79 81 81 82 81 79 77 75 74 73 71 69 67 64 62 59 56 53 51 48 48 49 48 47 48 53 57 61 64 67 70 73 75 77 79 82 84 86 88 89 90 90 90 90 89 89 89 90 90 90 90 91 90 89 88 88 88 88 87 86 85 83 82 81 80 80 80 79 78 78 77 77 78 77 74 73 73 73 73 75 76 76 76 78 79 80
78 80 82 82 82 82 81 79 77 76 75 73 71 69 66 64 61 58 56 53 51 49 49 49 48 48 52 57 60 63 66 69 71 73 75 77 79 82 83 85 87 88 88 89 89 89 88 88 89 89 89 90 91 90 88 87 88 88 88 86 85 84 84 83 82 81 80 80 80 80 79 78 78 78 77 75 74 74 74 75 76 77 77 78 79 80 80
78 81 83 83 83 83 82 80 79 77 76 75 73 71 68 66 63 61 59 56 54 51 50 50 49 48 50 56 60 63 66 68 70 72 73 75 77 79 81 82 85 86 87 88 88 88 88 87 88 88 88 89 90 90 87 87 87 87 87 86 85 85 84 83 82 81 81 82 82 82 81 80 79 78 77 76 76 76 76 76 77 78 79 79 80 81 81
79 81 83 84 84 84 84 82 80 79 78 77 75 72 70 68 66 63 61 59 57 54 51 50 51 50 49 53 59 64 66 68 70 71 73 74 76 78 79 80 82 85 86 87 87 88 88 87 87 87 87 87 88 88 87 86 87 88 88 87 86 86 85 84 83 83 83 84 84 84 82 81 80 79 78 78 78 78 77 78 78 79 80 80 81 81 82
80 82 84 85 85 85 85 84 82 80 79 78 77 74 72 70 68 66 64 62 60 57 54 51 51 51 50 51 56 63 67 69 70 71 72 73 75 76 78 79 80 82 84 86 87 87 87 87 87 87 86 86 87 87 87 86 87 89 89 88 87 87 86 85 85 85 85 85 85 84 83 82 81 81 80 79 79 79 80 80 80 81 82 82 83 83 84
82 82 84 86 86 86 86 85 84 82 81 79 78 76 74 72 70 69 67 65 62 60 57 54 52 52 52 51 53 59 65 69 71 72 73 74 74 75 76 78 79 80 82 84 86 87 87 87 87 87 86 85 85 85 85 86 86 87 89 88 87 87 86 86 86 86 86 87 86 83 83 84 84 83 82 81 81 81 82 82 83 83 84 84 84 85 86
83 83 84 86 87 88 87 86 86 84 83 81 80 78 76 74 73 71 69 68 65 63 61 58 55 54 54 53 53 55 61 67 71 72 73 74 74 75 75 76 78 79 80 82 83 85 86 87 87 87 87 86 85 85 84 84 85 86 88 88 87 87 87 88 88 87 88 89 87 84 85 87 87 85 84 83 83 83 84 84 85 85 85 85 85 86 86
84 84 84 86 88 89 88 87 87 86 85 83 82 80 79 77 75 74 72 70 68 66 64 61 59 56 55 55 55 55 56 61 68 72 74 74 75 75 76 76 76 77 79 81 82 83 85 86 87 87 87 86 86 86 85 84 85 86 87 87 86 87 89 89 89 89 90 91 88 86 87 88 87 87 86 86 86 86 86 86 86 87 87 87 86 86 87
84 85 85 86 88 89 90 89 88 87 86 85 84 82 81 79 78 76 74 73 71 69 67 64 63 60 58 57 57 56 56 57 61 67 72 75 76 76 76 77 77 77 78 79 80 82 84 86 87 87 87 86 87 87 87 86 86 87 88 88 87 88 89 90 89 90 91 90 88 87 88 88 88 89 89 88 88 89 88 88 88 88 88 88 88 88 88
84 85 86 86 87 89 90 90 90 89 88 87 85 84 83 81 80 78 77 75 73 71 69 67 66 64 62 60 59 58 58 57 58 60 65 71 75 77 77 77 78 78 78 79 79 81 83 84 86 87 87 87 88 88 88 88 88 89 89 89 89 89 89 89 89 90 91 90 89 88 89 90 91 92 91 90 90 90 90 90 90 90 90 91 90 90 90
83 85 87 87 87 89 90 91 91 91 90 89 87 86 85 84 83 81 79 78 76 74 72 71 69 68 66 64 62 60 60 60 59 59 60 63 69 74 77 79 79 79 79 80 80 81 82 83 84 86 87 88 88 88 88 88 89 90 90 90 90 90 90 90 90 90 91 90 90 90 91 92 93 94 94 92 92 91 91 92 92 92 92 93 93 93 94
81 84 87 88 88 88 90 91 92 92 92 91 89 88 87 86 85 84 82 80 79 77 75 73 72 71 70 68 66 64 62 61 61 61 61 60 62 66 71 76 79 81 81 81 82 82 83 83 84 85 86 87 88 88 88 89 90 91 90 90 92 93 92 92 91 91 91 91 90 91 92 93 94 94 94 94 94 94 94 95 94 94 95 95 95 96 96
79 82 85 88 88 89 89 90 92 92 92 92 91 90 89 88 87 86 84 83 81 79 77 76 74 74 73 72 70 68 66 64 63 62 63 63 63 63 65 68 73 77 81 82 83 84 84 85 85 86 86 86 86 87 87 89 90 91 90 91 94 95 94 93 93 92 91 91 91 91 92 93 94 94 94 95 96 96 96 97 97 97 97 98 98 98 97
76 80 84 86 88 89 89 90 91 92 92 92 93 92 92 90 89 87 86 85 84 82 80 78 77 76 75 74 73 71 69 68 66 65 64 64 64 65 65 65 66 70 74 78 81 83 85 85 86 86 87 87 86 87 88 88 90 91 92 93 95 96 95 94 93 93 92 92 92 93 94 94 95 95 96 97 97 98 97 98 98 98 99 99 98 98 97
73 77 81 84 87 89 89 90 90 91 92 93 93 93 93 93 91 90 88 87 86 84 83 81 79 78 77 76 75 74 73 71 70 69 67 66 66 66 66 66 67 67 68 70 73 77 80 83 85 86 86 87 87 87 88 88 91 93 94 95 95 96 95 95 95 95 95 95 95 94 95 95 96 96 97 98 98 99 98 98 98 99 99 99 100 99 99
70 74 77 81 84 87 89 90 90 90 91 92 93 93 94 94 93 92 91 89 88 86 85 83 82 80 79 78 77 76 75 74 73 72 71 70 69 67 67 67 67 68 68 68 69 71 73 75 78 80 82 84 85 85 86 89 92 94 94 94 95 95 96 96 96 96 97 97 96 96 95 96 97 98 98 98 99 99 99 99 99 99 100 100 101 101 100
68 71 74 78 82 85 88 89 89 90 90 91 92 93 94 94 94 93 92 91 90 89 87 86 84 83 81 80 79 79 78 77 76 75 74 73 72 71 70 69 68 68 68 68 69 70 71 72 73 74 75 77 78 79 83 87 91 92 92 92 93 94 95 96 96 97 97 97 97 97 96 96 97 98 99 100 100 100 100 100 100 100 100 101 102 101 101
64 67 71 74 78 82 85 87 89 90 91 91 91 92 93 93 94 94 93 92 91 90 89 88 87 85 84 82 81 80 80 79 78 77 76 75 75 74 73 72 71 70 70 69 70 71 72 72 71 71 72 73 74 76 79 82 85 86 87 88 90 91 92 94 95 95 95 96 96 96 96 96 96 96 97 98 99 100 100 100 99 99 99 99 100 99 98
62 64 68 71 74 77 81 84 87 89 90 91 91 91 91 92 92 93 93 93 92 92 90 89 88 87 86 84 83 82 81 81 81 80 79 78 77 77 76 75 74 74 73 73 73 74 74 73 72 71 71 73 74 76 78 79 80 82 82 83 85 86 87 88 89 90 90 91 92 92 92 92 92 92 93 94 95 96 96 96 95 95 94 94 94 94 92
59 62 65 67 70 73 77 81 84 86 88 89 90 90 90 90 90 91 92 93 93 93 92 91 90 89 88 87 86 85 84 83 83 82 82 81 80 79 79 78 77 77 76 76 77 77 76 75 75 74 74 75 76 77 78 79 80 80 81 81 82 82 83 83 84 84 85 86 87 88 88 88 88 89 89 89 90 91 91 91 91 91 91 91 91 91 90
55 59 61 64 67 70 73 76 79 82 85 87 88 89 89 89 89 90 90 91 92 93 93 92 92 91 90 89 88 86 85 85 84 84 84 84 83 82 82 81 80 80 79 80 80 80 79 78 78 78 78 79 80 80 81 83 83 82 81 81 80 80 80 81 81 82 83 84 85 86 86 86 86 87 87 87 88 89 89 90 90 90 91 91 91 91 92
52 55 58 61 64 67 69 72 74 77 81 83 85 87 88 89 89 89 89 89 90 91 92 92 92 91 90 89 89 88 87 86 86 85 85 85 85 85 85 84 84 83 82 82 83 83 81 81 80 81 82 83 83 84 86 88 86 84 83 82 81 80 81 81 82 83 84 85 85 85 86 86 86 87 88 88 88 88 89 90 91 92 92 93 93 93 93
49 51 54 57 61 64 67 69 70 72 76 79 81 84 86 87 88 88 88 88 89 89 89 90 91 91 91 90 89 89 88 88 88 87 87 87 87 87 87 87 86 86 85 85 86 85 84 83 83 84 85 86 86 88 90 91 88 86 84 83 83 83 84 85 86 86 87 87 87 87 87 87 88 88 89 89 90 90 90 91 92 93 94 95 95 95 95
45 47 50 53 56 59 62 65 67 68 71 73 76 79 82 84 85 87 87 88 88 88 88 88 89 90 90 90 90 91 90 90 89 89 89 89 89 88 88 88 88 87 87 87 87 87 86 86 87 88 89 89 89 90 90 90 88 87 87 87 87 88 88 88 89 89 89 89 89 89 89 89 90 90 91 91 92 93 94 94 95 95 96 97 97 98 98
42 44 46 49 51 54 57 60 62 64 67 69 71 74 77 80 82 84 85 86 87 87 87 87 87 88 88 89 89 90 91 90 91 90 90 90 90 90 89 89 89 88 88 88 88 88 88 88 90 91 91 90 90 90 90 90 90 91 92 93 93 92 91 91 91 91 91 91 91 90 91 91 92 92 92 92 93 94 96 97 98 98 99 99 99 99 99
39 41 43 45 47 49 52 54 57 60 64 66 68 70 72 74 77 79 81 82 84 85 86 86 87 87 87 87 87 87 88 88 88 89 89 90 90 90 89 89 89 89 89 89 89 89 90 90 91 92 91 90 90 91 92 93 94 94 94 95 95 94 93 92 92 92 92 92 92 92 92 93 93 93 93 93 94 95 96 98 99 100 100 100 100 100 100
36 38 40 42 44 46 48 50 53 56 59 61 63 65 67 68 70 73 75 77 79 82 83 85 86 86 86 86 85 85 86 86 86 86 86 87 87 87 88 89 89 89 89 89 90 90 91 91 91 91 91 91 91 92 93 94 94 94 95 95 95 94 93 92 91 91 91 92 92 91 91 92 93 93 93 93 94 95 96 97 98 99 99 99 99 99 99
35 37 38 40 41 43 44 47 49 51 53 55 58 60 62 64 66 68 70 72 75 77 79 80 82 82 83 83 83 84 84 85 85 85 85 85 85 86 86 86 87 87 88 88 89 89 89 89 89 89 89 90 90 91 91 92 92 91 91 91 91 89 88 87 86 86 86 87 87 87 87 88 89 90 91 92 92 93 94 95 96 96 96 97 97 97 97
33 34 36 37 38 40 42 44 45 46 48 50 52 55 57 59 61 63 65 67 69 71 72 73 75 76 77 78 79 81 82 83 83 84 84 84 85 85 85 85 85 86 86 86 86 86 86 86 86 86 86 87 88 89 90 90 88 86 85 84 84 83 82 81 81 81 82 83 84 84 85 85 87 88 89 90 91 91 91 92 92 93 93 93 94 93 93
30 31 33 34 35 37 39 40 41 42 43 45 47 49 51 53 55 57 58 60 61 63 64 66 67 69 70 72 73 75 77 78 79 80 81 82 82 82 83 83 84 83 83 83 83 83 83 84 84 85 85 85 86 87 88 87 84 81 79 77 77 76 76 75 75 76 77 78 79 80 80 81 82 83 84 84 85 85 85 86 86 86 86 86 86 85 84
27 28 30 31 32 34 36 36 37 38 40 41 43 44 45 46 48 50 52 53 55 56 58 59 60 62 63 65 66 68 69 70 72 73 74 75 77 78 79 79 78 78 77 78 78 79 79 80 80 81 81 81 81 81 81 79 76 73 70 68 67 66 65 64 65 66 67 69 70 70 70 72 73 73 74 74 75 75 74 74 74 75 75 74 73 72 71
25 26 27 28 29 31 32 32 32 34 35 36 37 38 40 41 42 44 45 47 49 51 52 53 54 56 57 58 59 60 61 62 63 64 65 67 68 69 69 69 69 69 69 69 70 70 70 71 71 70 70 71 71 71 70 69 66 62 59 57 56 54 54 54 55 56 58 59 60 60 60 62 63 63 63 64 64 63 63 63 62 62 62 62 61 60 59
21 22 24 24 25 25 26 27 29 30 32 32 33 34 36 37 38 39 40 42 43 45 46 48 49 50 51 52 52 53 54 55 55 56 57 57 57 57 57 57 58 58 58 58 58 58 58 58 58 57 58 58 59 59 58 57 55 52 49 47 45 45 44 45 46 47 48 49 50 50 51 53 54 55 55 56 55 55 55 55 55 55 55 54 53 52 51
20 21 22 23 23 24 25 26 28 29 29 30 31 32 33 34 35 36 37 38 39 40 41 42 42 43 44 45 46 47 47 48 48 48 48 48 48 48 47 47 47 47 46 46 46 47 47 46 46 46 46 47 47 47 47 46 44 42 39 37 36 36 36 37 38 39 40 41 42 43 44 46 47 48 49 49 49 48 48 48 48 47 46 45 45 45 44
Wind_Direction
230 231 232 233 234 236 237 239 240 240 240 240 239 237 236 235 234 233 232 232 232 232 232 232 232 231 230 229 229 229 229 229 228 228 228 228 228 228 229 230 231 232 233 234 235 236 237 238 238 238 238 239 240 241 242 243 244 245 247 248 249 249 251 252 252 252 254 256 257 260 262 263 264 266 268 270 272 274 275 277 279 281 283 286 287 288 290
228 229 230 232 233 234 235 237 239 239 240 240 239 238 237 236 234 233 231 231 231 232 231 231 231 230 229 229 228 228 228 228 228 228 227 227 227 228 229 230 231 232 233 233 235 236 237 238 238 238 238 238 239 240 241 243 244 245 246 247 248 249 251 252 252 252 254 255 257 259 260 261 264 267 268 269 270 272 274 276 278 280 282 284 285 286 289
226 227 229 230 231 232 234 235 237 238 240 240 240 238 237 236 234 232 231 230 230 231 231 230 230 230 229 229 228 228 228 228 228 228 228 227 227 228 228 229 230 231 232 233 234 235 236 237 238 238 238 238 239 240 241 242 243 244 245 247 248 250 251 252 253 253 254 255 256 258 259 262 265 266 267 268 269 272 273 275 277 279 281 282 283 284 287
225 226 227 229 230 231 232 234 236 237 239 240 240 239 237 236 234 232 230 230 229 229 230 230 229 229 229 229 228 228 227 228 228 228 227 227 227 227 228 229 230 230 231 232 233 234 235 236 237 238 238 238 239 240 241 242 243 244 245 246 248 250 251 252 253 253 253 254 255 257 259 261 263 265 266 267 269 271 273 274 276 277 279 280 281 284 286
223 224 226 227 229 230 231 232 234 236 238 239 239 238 236 235 234 232 230 229 229 229 229 229 229 229 229 228 228 227 227 227 227 227 227 227 226 227 228 228 229 230 231 232 233 233 234 236 237 237 238 238 239 240 241 242 243 244 245 246 248 249 250 251 252 252 253 254 255 256 258 260 262 264 265 267 269 271 273 274 275 276 277 279 280 283 285
222 223 224 226 228 229 229 230 232 234 236 237 238 237 236 234 233 232 229 228 228 228 228 228 228 228 228 227 227 227 227 227 227 227 227 227 226 226 227 228 229 230 231 231 232 233 234 235 236 237 238 238 239 240 241 242 243 243 244 246 247 248 249 250 252 252 253 254 254 256 258 260 261 263 265 267 269 271 272 273 274 275 277 278 280 283 285
222 222 223 224 226 228 229 229 230 232 235 237 237 237 236 234 233 232 230 228 228 228 228 228 227 227 227 227 226 226 226 226 226 226 226 226 226 226 227 228 229 230 230 231 232 233 233 235 236 237 237 238 239 240 241 242 243 243 244 245 246 247 249 250 251 252 253 254 255 256 257 259 261 263 265 267 269 271 272 272 273 274 276 278 280 283 284
221 221 222 223 225 227 228 229 229 231 234 236 236 236 235 233 232 232 230 228 227 227 228 228 227 227 227 226 226 226 226 226 226 226 226 226 226 226 227 227 228 229 230 231 232 232 233 234 235 236 237 238 239 240 241 242 243 243 244 245 246 247 248 250 251 252 253 254 255 256 258 259 261 263 265 267 269 270 271 272 273 275 277 279 281 283 283
220 221 221 222 224 226 227 228 229 230 233 235 235 235 235 233 232 232 231 229 228 227 228 228 227 227 226 226 226 226 226 226 226 225 225 225 225 226 226 227 228 229 230 231 231 232 233 234 235 236 237 238 238 239 240 241 242 243 244 245 246 247 248 250 251 253 254 254 255 257 258 260 262 264 266 268 269 270 271 272 273 274 277 279 281 283 283
219 220 221 221 223 225 226 228 228 230 232 234 235 235 234 233 232 232 231 230 228 228 228 228 227 227 226 226 226 225 225 225 225 225 225 225 225 225 225 226 228 229 230 230 231 232 233 234 234 235 237 237 238 239 240 242 243 244 245 245 246 247 248 250 252 253 254 255 256 257 259 261 263 265 267 267 268 270 272 272 273 274 277 279 281 282 283
219 219 220 221 222 224 225 227 228 229 231 233 234 235 234 233 232 232 231 230 229 228 228 228 228 227 226 226 225 225 225 225 225 225 225 224 224 224 225 226 227 228 229 230 231 232 233 234 234 235 236 237 238 239 240 242 243 244 245 245 246 247 248 249 251 252 253 255 256 258 260 262 264 265 266 267 269 271 272 272 273 275 277 278 279 279 281
218 218 219 220 221 222 224 226 227 228 230 231 232 234 234 234 233 232 231 231 230 229 229 229 228 228 227 226 225 225 224 224 224 224 224 224 224 224 224 225 227 228 229 230 231 231 232 233 234 235 236 237 238 239 240 241 242 243 244 245 246 247 247 249 250 252 254 255 257 259 261 262 263 264 266 268 269 271 271 272 273 275 276 276 277 278 280
218 218 218 219 220 221 223 225 226 228 229 230 231 232 233 234 233 232 230 231 231 230 230 230 229 228 228 226 225 225 224 224 224 224 223 223 223 223 224 225 226 227 228 229 230 231 232 233 234 235 236 237 238 239 240 241 243 243 244 245 246 247 248 248 250 252 254 256 258 259 260 261 262 264 266 268 269 270 271 272 273 274 275 275 276 278 279
218 218 218 219 219 220 222 224 225 227 228 229 230 230 231 233 233 232 230 230 231 231 231 231 230 229 228 227 226 225 224 224 224 223 223 223 223 223 224 224 225 227 228 229 230 231 232 233 233 234 235 237 238 239 240 242 243 244 245 246 247 247 248 249 250 251 253 255 258 259 260 260 262 264 265 267 269 270 271 272 273 274 274 275 276 277 278
218 217 217 218 219 220 221 223 224 226 227 228 229 229 230 231 232 232 231 229 230 231 231 231 230 229 228 226 226 225 224 224 223 223 223 223 223 223 224 224 225 226 227 229 230 231 232 232 233 234 235 236 237 239 240 241 242 244 245 246 247 248 248 249 250 252 253 254 257 259 260 262 263 263 265 267 268 269 270 271 273 274 275 276 276 277 278
218 217 217 217 218 219 220 221 223 225 226 227 228 228 229 229 230 231 231 229 229 231 231 231 231 229 228 227 226 225 225 224 224 223 223 223 223 223 224 224 224 225 227 228 230 231 231 232 233 234 235 236 237 238 239 240 241 243 244 246 247 248 249 250 251 253 254 255 256 258 260 262 263 263 264 265 266 268 270 271 272 273 275 276 277 277 279
218 217 217 217 217 218 219 220 222 224 225 226 227 228 228 228 229 230 230 229 229 229 230 231 231 230 228 227 226 225 225 224 224 224 223 223 223 223 224 224 224 225 226 228 229 230 231 232 233 234 235 236 237 238 239 240 241 243 244 246 247 248 250 250 251 253 254 255 256 258 260 261 262 263 263 264 266 267 269 271 272 273 274 276 277 278 279
217 216 216 216 217 217 218 219 220 222 224 225 226 227 228 228 228 229 229 229 229 228 229 230 231 230 228 227 226 225 225 224 224 224 224 224 224 224 224 224 224 225 226 227 228 229 230 232 232 234 235 236 237 238 239 240 242 243 244 246 247 248 250 251 252 253 254 256 257 258 259 260 261 262 263 264 266 267 269 270 271 273 274 275 276 278 279
216 216 216 216 216 217 217 218 219 221 223 224 225 226 227 227 227 228 228 228 228 228 227 228 230 230 228 227 226 226 225 225 225 224 224 224 224 224 225 225 225 225 225 226 228 229 230 231 232 233 234 236 237 238 239 241 242 243 245 246 247 249 250 251 252 253 254 256 257 257 257 259 261 262 263 265 266 267 269 270 270 272 273 274 275 276 278
215 216 216 215 216 216 217 217 218 219 221 223 224 225 226 227 227 228 228 228 228 228 227 227 228 229 228 227 226 225 225 225 225 225 224 224 225 225 225 225 225 225 226 226 227 228 229 230 232 233 234 236 237 238 239 241 242 244 245 246 247 249 250 251 252 253 254 255 256 256 257 258 260 262 263 265 266 267 268 269 270 271 272 273 274 276 278
215 215 215 215 215 216 216 217 218 219 220 221 223 224 225 226 226 227 228 228 228 228 227 227 227 227 227 227 226 225 225 225 225 225 225 225 225 225 225 226 226 226 225 226 227 228 229 230 231 233 234 236 238 238 239 241 242 243 245 246 246 247 249 250 252 253 254 254 255 256 258 258 260 261 263 264 265 266 267 268 269 271 272 273 275 276 277
214 214 215 215 215 215 216 216 217 218 219 220 221 222 224 225 225 226 227 227 227 227 227 227 226 226 227 226 225 225 225 225 225 225 225 225 226 226 226 226 227 227 226 226 227 228 229 230 231 232 234 235 238 239 239 240 242 243 244 245 246 247 248 250 251 252 253 254 255 257 258 259 260 261 262 263 264 265 266 268 269 270 272 273 274 276 277
214 214 214 214 215 215 216 216 217 217 218 219 220 221 222 224 224 225 226 227 227 227 227 227 226 226 226 226 226 225 225 225 225 225 225 226 226 227 227 227 227 228 228 227 227 228 229 230 231 232 233 235 237 239 239 240 242 244 244 245 246 247 248 249 251 252 253 254 256 257 258 259 259 260 261 262 264 265 267 268 269 270 271 273 274 275 276
214 214 214 214 214 215 215 216 217 217 218 219 220 220 221 222 223 224 225 226 227 227 227 227 226 226 226 227 227 226 225 225 226 226 226 226 227 227 228 228 228 228 229 229 229 229 230 230 231 232 233 234 236 238 239 240 242 244 245 246 246 248 248 249 250 251 252 253 255 256 257 258 259 260 261 262 264 265 266 268 269 270 271 272 274 275 276
214 214 214 214 214 215 215 216 217 217 218 219 219 220 221 221 222 224 225 226 226 227 227 227 227 227 226 227 227 227 226 226 226 226 226 226 226 227 228 229 229 229 230 230 230 231 231 231 232 233 234 234 236 237 239 240 241 243 245 246 247 248 248 249 250 250 252 253 254 255 257 259 260 261 262 263 264 265 266 267 269 270 271 272 273 274 275
214 214 214 214 215 215 215 215 217 218 218 219 220 220 221 221 222 223 224 225 226 227 227 227 227 227 227 227 227 228 228 227 227 226 226 227 227 227 228 229 230 230 231 231 231 232 232 233 233 234 235 235 236 237 238 240 241 242 244 245 246 247 248 249 250 251 252 253 255 256 257 259 260 261 262 263 264 265 266 267 268 269 270 272 273 273 274
214 214 214 214 215 215 215 215 216 218 218 219 220 220 221 221 222 222 223 224 225 226 227 227 228 228 227 227 227 228 228 229 229 228 227 227 227 228 228 229 229 230 231 232 232 233 233 234 234 235 236 236 237 238 239 240 241 242 243 244 245 246 248 249 251 252 253 254 255 256 257 259 260 261 262 263 264 265 266 267 268 269 270 271 272 273 274
214 214 214 215 215 215 215 216 216 218 219 219 220 221 221 221 222 222 223 224 225 226 226 227 228 229 229 228 228 228 228 229 229 230 229 229 228 228 228 229 230 230 231 232 233 234 234 235 235 236 236 237 238 239 240 241 242 243 244 245 245 246 248 249 250 251 253 254 255 256 257 259 260 261 262 263 264 265 266 267 268 269 270 271 272 273 273
216 214 214 215 215 215 216 216 216 217 219 220 220 221 221 221 222 222 223 223 224 225 226 226 227 229 229 230 229 229 229 229 229 230 230 230 230 230 230 230 230 231 231 232 232 234 235 236 236 237 237 238 239 240 241 242 243 244 245 246 247 248 248 249 250 251 253 254 255 256 258 259 261 262 263 264 265 265 266 267 268 269 270 271 271 272 273
217 216 215 215 215 216 216 216 217 217 219 220 221 222 222 222 222 222 222 223 223 224 225 226 227 228 229 230 230 230 230 230 230 230 230 231 232 232 232 231 231 231 232 233 233 234 235 236 237 238 238 239 240 241 242 243 245 246 247 248 249 249 249 250 251 252 253 255 256 257 258 259 260 262 263 264 265 265 266 267 267 268 269 270 271 272 274
219 217 216 216 216 216 217 217 217 217 218 219 221 222 223 223 223 223 223 223 224 224 225 226 227 228 229 230 231 231 231 231 231 231 231 231 231 232 233 233 233 233 233 234 234 235 235 236 237 238 239 240 241 242 243 244 245 246 247 248 249 250 251 252 253 254 255 256 257 257 258 259 260 261 263 264 265 265 266 267 268 269 270 271 272 273 274
220 219 218 217 216 216 217 217 218 218 218 219 220 222 223 224 224 225 225 225 225 224 224 225 226 228 229 230 231 232 232 232 233 233 232 232 232 232 232 233 234 234 235 235 236 236 237 237 238 239 239 240 241 242 243 244 245 247 247 248 250 251 253 253 254 255 255 256 257 258 259 260 261 262 263 264 265 266 267 268 269 270 271 271 272 273 274
221 220 219 218 218 217 217 218 218 219 219 220 220 221 223 224 225 225 226 226 226 226 226 226 226 228 229 231 232 232 233 233 233 234 234 233 233 233 233 233 234 235 235 236 237 238 238 239 240 240 241 241 242 243 244 245 246 247 248 248 250 252 253 253 254 255 256 256 257 258 259 260 261 262 263 264 265 266 267 268 269 270 271 271 272 272 273
220 221 221 220 219 218 218 218 219 219 220 220 221 221 222 224 225 226 226 227 227 228 227 227 227 228 229 231 232 233 234 234 234 234 235 235 235 235 235 235 235 236 236 237 237 238 239 240 240 241 242 242 243 244 245 246 246 247 248 249 251 252 253 253 254 255 256 257 257 258 259 260 261 262 263 264 265 266 267 267 268 269 270 271 271 272 273
220 220 221 221 220 220 219 219 219 219 220 221 222 222 223 223 224 225 226 227 228 228 229 228 228 229 230 231 232 234 235 235 235 235 236 236 236 236 236 236 237 237 238 238 239 239 240 240 241 242 242 243 244 244 245 246 247 248 249 250 251 252 253 254 254 255 256 257 257 258 259 260 261 262 263 264 265 265 266 267 267 268 269 270 270 271 272
220 220 220 221 221 221 221 220 220 220 221 221 222 223 223 224 224 225 226 227 228 228 229 229 229 229 230 231 233 234 235 236 237 237 237 237 237 237 237 238 238 239 239 240 241 241 242 242 242 242 243 244 244 245 245 246 248 248 249 250 251 252 253 254 255 256 256 257 258 258 259 260 261 262 263 264 265 266 267 267 268 268 269 269 270 271 271
221 220 220 220 221 222 222 222 221 221 221 222 223 223 224 224 225 225 226 227 227 228 229 229 229 230 231 232 233 234 235 237 238 238 238 238 238 239 239 239 240 240 240 241 242 243 243 244 244 244 245 245 245 246 246 247 248 249 249 250 251 252 253 254 255 256 257 258 259 259 260 260 261 262 262 263 265 266 266 267 267 268 268 269 269 270 270
221 220 220 220 221 221 222 222 223 223 223 223 223 224 224 225 225 226 226 227 228 228 229 229 230 230 231 232 233 234 235 236 237 238 239 239 239 240 240 241 241 242 242 242 243 243 244 245 245 246 246 247 247 247 248 248 248 249 249 250 251 252 253 254 255 257 258 259 259 260 260 261 261 262 262 263 263 264 265 266 266 267 267 268 268 269 269
220 220 220 220 220 221 221 222 223 223 224 224 224 224 225 225 226 226 227 227 228 229 229 230 230 231 232 233 233 234 235 236 237 238 239 240 240 241 242 242 243 243 244 244 245 245 245 246 246 247 247 248 249 249 250 250 249 249 250 251 252 253 254 255 256 257 258 258 259 260 261 261 262 262 263 263 263 264 265 266 266 266 267 267 267 268 268
219 219 219 219 220 220 221 222 222 223 224 224 225 225 226 226 227 227 227 228 228 229 229 230 231 232 232 233 233 234 235 235 236 238 239 240 241 242 243 244 244 245 245 246 247 247 247 247 248 248 249 249 250 250 251 251 251 251 252 253 254 255 256 256 257 257 258 259 259 260 261 262 263 263 264 264 264 265 265 266 267 267 267 267 267 268 268
218 218 218 218 219 220 221 221 222 222 223 224 225 226 226 227 227 228 228 229 229 229 230 230 231 232 232 233 233 234 235 236 237 238 239 240 242 243 244 246 246 246 247 247 248 249 249 249 249 250 250 250 250 251 252 253 254 254 255 256 256 257 257 257 257 258 259 260 260 261 262 263 264 264 265 265 266 266 266 266 267 267 268 268 269 269 269
218 218 218 218 218 219 220 221 222 222 223 223 224 225 226 227 228 228 229 229 230 230 230 231 231 232 232 233 234 235 236 236 238 239 240 241 242 244 245 246 247 248 248 248 249 250 250 250 251 251 251 251 252 253 254 255 256 257 257 256 256 256 256 257 258 259 259 260 261 262 263 264 264 265 266 266 267 268 268 268 268 268 269 269 270 270 271
218 217 217 218 218 219 220 220 221 222 223 223 224 225 226 227 228 228 229 230 230 231 231 232 232 233 233 234 234 235 236 237 239 240 241 242 243 244 245 246 247 248 248 249 250 251 251 251 252 252 252 253 254 255 256 256 257 257 257 257 257 257 257 258 259 260 261 262 263 263 264 265 265 266 266 267 267 268 269 269 269 270 270 270 271 271 272
216 216 217 217 218 218 219 219 220 221 222 223 223 224 225 226 227 228 229 230 231 231 232 233 233 233 234 234 235 236 237 238 239 240 241 242 243 244 245 246 247 248 249 250 251 252 252 253 254 254 255 256 256 257 257 257 257 257 258 259 260 260 260 261 261 262 263 264 264 264 265 265 266 266 267 267 267 268 268 269 270 270 271 271 272 273 274
214 215 215 216 216 217 217 218 218 219 221 222 222 223 224 225 226 227 228 229 230 231 232 233 233 234 235 235 236 237 238 239 239 240 241 242 244 245 245 246 247 248 249 250 251 252 253 254 255 257 258 258 258 258 259 259 260 260 260 261 261 262 262 263 263 264 264 265 265 266 266 266 267 267 267 267 267 268 268 269 270 270 271 272 273 274 275
210 212 212 214 215 215 216 217 218 218 219 220 221 222 223 224 225 226 227 228 229 230 231 232 233 234 235 235 236 237 238 239 240 241 242 243 244 245 246 247 248 249 250 251 252 253 255 256 257 258 259 260 261 261 261 261 261 261 262 262 263 264 265 265 265 266 266 266 266 267 266 266 267 267 267 267 268 268 268 269 270 271 272 272 273 274 275
208 209 210 211 212 213 214 216 217 217 218 219 220 221 222 223 224 225 226 227 228 229 230 231 232 233 234 235 236 237 238 239 241 242 243 244 245 246 247 248 249 250 251 252 253 255 256 257 258 259 260 261 262 263 263 264 264 264 265 265 266 267 267 267 267 267 267 267 266 266 266 266 266 266 266 266 267 267 268 269 269 270 271 272 272 273 273
205 206 208 209 210 211 213 215 215 215 217 218 219 220 221 222 223 224 225 227 228 229 230 231 232 233 234 235 236 237 238 239 240 242 243 244 246 247 248 249 250 251 252 254 255 257 258 259 260 261 262 263 264 265 266 267 268 268 269 269 269 268 268 267 266 266 265 264 264 264 264 263 263 264 264 265 265 266 267 268 269 269 270 270 271 271 272
200 203 205 206 206 208 211 213 213 214 215 216 217 218 219 220 221 223 224 225 227 228 229 231 232 232 233 234 235 236 237 239 240 241 243 244 246 247 249 250 251 253 254 255 257 258 259 261 262 263 264 265 266 267 268 270 270 271 271 270 269 267 266 264 263 261 261 260 260 260 260 261 261 262 263 264 265 266 266 267 267 268 269 269 270 271 271
196 198 200 202 204 206 208 209 209 211 213 214 215 216 217 218 219 220 221 222 224 225 227 228 229 230 231 233 234 235 236 238 239 241 242 244 245 247 249 251 252 254 255 256 257 259 260 261 263 264 265 267 268 269 270 271 272 272 271 270 268 265 262 260 258 257 257 257 257 258 259 260 261 262 263 264 265 266 266 266 267 268 269 270 271 272 272
190 193 194 196 199 201 203 204 205 206 208 209 210 211 213 214 215 217 218 219 220 222 223 224 226 227 229 230 232 233 235 236 237 239 241 243 245 247 249 250 252 253 255 256 258 259 260 261 263 264 265 266 267 269 270 271 272 272 271 268 265 262 259 257 256 256 256 257 258 258 259 259 260 262 262 263 264 264 265 266 267 269 271 272 273 273 273
179 182 185 187 188 190 193 195 197 199 201 202 203 204 206 208 209 211 212 214 215 217 219 220 222 224 225 227 228 230 232 233 235 237 239 241 243 246 248 250 252 254 255 256 257 258 259 260 262 263 264 264 266 267 268 270 270 270 269 266 262 259 257 255 255 255 255 256 256 257 257 258 259 261 262 264 265 266 267 268 269 270 271 272 272 271 271
Height
10655 10660 10664 10669 10672 10676 10680 10684 10688 10692 10695 10697 10703 10708 10712 10715 10719 10725 10732 10739 10743 10749 10755 10761 10766 10773 10778 10781 10784 10789 10796 10803 10809 10815 10822 10828 10834 10840 10845 10850 10855 10860 10866 10872 10877 10879 10883 10887 10890 10894 10897 10898 10899 10904 10907 10909 10911 10914 10917 10917 10918 10919 10921 10924 10929 10929 10929 10931 10931 10932 10934 10934 10934 10936 10936 10937 10937 10936 10936 10935 10934 10933 10932 10931 10928 10923 10924
10646 10651 10656 10660 10664 10668 10672 10675 10679 10684 10687 10689 10693 10699 10702 10705 10709 10714 10722 10728 10733 10739 10745 10750 10756 10762 10767 10769 10773 10780 10787 10793 10799 10806 10812 10819 10826 10831 10836 10841 10847 10852 10859 10864 10867 10871 10876 10880 10883 10886 10889 10890 10893 10896 10899 10901 10904 10907 10910 10910 10911 10913 10915 10918 10921 10923 10924 10925 10926 10927 10926 10926 10929 10931 10931 10931 10932 10931 10931 10930 10929 10928 10926 10926 10923 10918 10919
10638 10643 10647 10651 10655 10659 10663 10667 10671 10675 10679 10681 10684 10689 10693 10696 10699 10705 10712 10718 10724 10729 10734 10740 10745 10751 10755 10758 10764 10771 10777 10783 10790 10796 10802 10809 10816 10821 10826 10832 10838 10844 10850 10855 10859 10864 10868 10872 10875 10878 10880 10882 10885 10888 10891 10894 10897 10900 10903 10904 10905 10907 10909 10911 10914 10917 10919 10919 10919 10919 10919 10921 10925 10926 10925 10926 10926 10926 10926 10925 10924 10922 10921 10920 10917 10914 10913
10629 10634 10639 10643 10647 10651 10655 10659 10663 10667 10671 10673 10676 10680 10685 10688 10690 10696 10702 10708 10713 10718 10723 10729 10735 10740 10744 10749 10755 10761 10766 10773 10780 10786 10792 10799 10806 10811 10816 10822 10828 10834 10840 10845 10850 10855 10860 10864 10867 10869 10872 10874 10877 10880 10883 10887 10889 10892 10895 10898 10899 10901 10903 10905 10907 10909 10911 10912 10913 10913 10912 10916 10919 10919 10919 10920 10921 10921 10921 10920 10919 10917 10916 10914 10911 10909 10908
10620 10626 10630 10635 10639 10643 10648 10652 10656 10660 10663 10666 10668 10672 10677 10680 10683 10687 10693 10699 10703 10708 10713 10719 10725 10730 10734 10740 10745 10750 10756 10762 10768 10776 10782 10789 10795 10801 10806 10812 10818 10824 10831 10837 10842 10847 10852 10856 10858 10861 10864 10867 10869 10872 10875 10879 10882 10885 10888 10891 10894 10895 10896 10898 10899 10901 10903 10905 10907 10907 10907 10910 10912 10912 10913 10914 10915 10916 10915 10914 10913 10911 10911 10909 10905 10904 10903
10612 10617 10622 10627 10631 10635 10640 10644 10649 10652 10655 10658 10661 10665 10669 10673 10675 10678 10684 10690 10695 10699 10704 10709 10715 10719 10724 10730 10735 10739 10745 10751 10758 10766 10773 10778 10784 10790 10796 10803 10810 10816 10823 10829 10834 10839 10844 10847 10850 10853 10856 10859 10861 10865 10868 10870 10874 10878 10881 10884 10887 10887 10889 10891 10892 10894 10896 10898 10900 10901 10901 10903 10905 10906 10908 10908 10909 10909 10909 10909 10907 10905 10905 10903 10900 10900 10897
10603 10608 10614 10619 10623 10627 10632 10636 10641 10645 10647 10650 10655 10658 10662 10666 10668 10671 10676 10681 10685 10689 10694 10699 10704 10709 10714 10720 10724 10729 10735 10741 10748 10757 10762 10767 10774 10780 10787 10795 10802 10808 10814 10819 10825 10830 10835 10839 10842 10845 10848 10851 10854 10857 10860 10862 10865 10869 10872 10876 10879 10880 10882 10884 10885 10887 10889 10890 10892 10894 10895 10897 10898 10900 10902 10902 10903 10903 10902 10902 10901 10899 10899 10897 10895 10895 10892
10594 10599 10605 10611 10615 10620 10624 10629 10634 10637 10639 10643 10648 10651 10655 10659 10662 10664 10668 10673 10677 10680 10685 10690 10695 10700 10705 10710 10714 10719 10725 10731 10738 10746 10752 10758 10765 10771 10779 10787 10793 10798 10803 10809 10816 10821 10826 10830 10834 10837 10840 10843 10847 10850 10851 10853 10856 10860 10864 10868 10871 10872 10875 10877 10878 10880 10882 10884 10885 10886 10888 10889 10891 10894 10896 10897 10896 10895 10895 10896 10895 10893 10892 10891 10890 10890 10887
10585 10590 10596 10602 10607 10612 10616 10621 10626 10630 10632 10636 10641 10644 10648 10652 10655 10657 10660 10664 10668 10672 10676 10681 10685 10691 10696 10701 10706 10710 10715 10721 10728 10735 10742 10749 10755 10762 10770 10777 10782 10787 10793 10800 10807 10812 10817 10822 10825 10828 10831 10834 10838 10841 10841 10843 10847 10851 10855 10860 10863 10866 10869 10870 10871 10874 10875 10876 10877 10879 10880 10882 10885 10888 10890 10889 10888 10887 10888 10889 10889 10887 10886 10886 10885 10884 10881
10575 10581 10587 10593 10598 10603 10608 10613 10618 10622 10625 10629 10634 10637 10641 10645 10648 10650 10653 10656 10660 10664 10668 10672 10677 10683 10688 10692 10696 10701 10706 10711 10718 10726 10734 10740 10746 10754 10761 10767 10772 10778 10785 10792 10799 10803 10808 10812 10816 10819 10823 10826 10829 10832 10833 10836 10840 10843 10847 10852 10855 10859 10862 10864 10866 10867 10867 10867 10869 10871 10873 10876 10880 10882 10881 10879 10879 10880 10882 10882 10881 10881 10881 10880 10879 10877 10876
10565 10571 10577 10583 10589 10595 10600 10605 10610 10614 10618 10622 10626 10630 10634 10638 10641 10644 10646 10649 10653 10656 10660 10664 10669 10674 10679 10683 10687 10692 10697 10702 10709 10717 10725 10731 10738 10745 10751 10757 10762 10769 10776 10783 10789 10794 10799 10803 10806 10810 10814 10817 10821 10824 10826 10829 10832 10835 10839 10843 10847 10851 10855 10858 10859 10859 10859 10859 10861 10864 10867 10870 10874 10874 10871 10870 10871 10873 10874 10875 10874 10874 10875 10875 10872 10871 10871
10556 10562 10567 10574 10580 10586 10591 10596 10601 10606 10610 10615 10619 10623 10626 10630 10634 10638 10640 10643 10646 10649 10653 10657 10661 10665 10669 10674 10678 10683 10688 10694 10700 10707 10715 10722 10728 10735 10741 10748 10754 10760 10767 10774 10779 10784 10789 10793 10797 10802 10806 10809 10812 10815 10818 10820 10824 10827 10830 10834 10838 10842 10847 10851 10851 10851 10852 10852 10854 10858 10862 10864 10864 10863 10862 10863 10864 10864 10866 10868 10867 10867 10868 10867 10864 10865 10866
10546 10552 10558 10564 10570 10577 10583 10588 10593 10598 10603 10607 10612 10616 10619 10623 10627 10631 10634 10637 10639 10643 10646 10649 10653 10657 10661 10666 10670 10674 10679 10685 10691 10698 10705 10712 10719 10726 10732 10739 10745 10751 10758 10764 10769 10774 10779 10783 10788 10793 10797 10800 10803 10807 10810 10813 10816 10819 10822 10826 10829 10833 10839 10842 10843 10845 10846 10846 10848 10852 10853 10854 10855 10854 10854 10855 10855 10855 10859 10861 10859 10858 10860 10858 10856 10858 10859
10536 10542 10549 10555 10561 10568 10574 10580 10585 10590 10595 10600 10604 10609 10613 10616 10620 10624 10628 10631 10633 10636 10639 10643 10646 10650 10653 10658 10662 10666 10671 10677 10682 10689 10696 10703 10710 10716 10723 10730 10736 10742 10749 10754 10760 10765 10769 10774 10779 10784 10789 10793 10797 10800 10803 10805 10808 10811 10814 10818 10820 10824 10829 10833 10835 10838 10840 10841 10843 10842 10841 10845 10847 10847 10846 10847 10847 10848 10852 10853 10850 10849 10851 10850 10848 10849 10849
10526 10533 10539 10546 10552 10559 10566 10572 10577 10582 10587 10592 10597 10601 10605 10609 10613 10617 10621 10625 10627 10629 10633 10636 10638 10642 10646 10650 10654 10659 10664 10669 10675 10681 10687 10694 10701 10707 10714 10721 10727 10733 10739 10745 10750 10755 10760 10766 10771 10777 10781 10785 10788 10791 10794 10796 10798 10801 10805 10808 10811 10814 10819 10824 10827 10829 10832 10836 10835 10831 10833 10837 10838 10838 10838 10840 10840 10840 10843 10845 10841 10839 10841 10840 10838 10839 10840
10517 10523 10530 10537 10543 10550 10556 10563 10568 10573 10579 10584 10589 10594 10598 10602 10606 10610 10614 10618 10620 10623 10626 10629 10632 10635 10639 10643 10647 10652 10657 10662 10667 10673 10679 10686 10693 10699 10705 10712 10718 10725 10730 10735 10740 10746 10752 10757 10764 10769 10773 10776 10778 10781 10784 10785 10788 10792 10796 10798 10801 10805 10808 10815 10820 10821 10824 10828 10827 10824 10827 10828 10827 10828 10831 10833 10833 10833 10835 10837 10833 10830 10831 10830 10827 10828 10831
10507 10514 10520 10527 10534 10540 10547 10554 10559 10565 10570 10576 10581 10586 10591 10595 10600 10604 10608 10611 10615 10617 10620 10623 10626 10629 10632 10636 10641 10645 10650 10655 10660 10666 10672 10679 10685 10690 10696 10703 10709 10715 10721 10726 10732 10737 10743 10750 10756 10760 10762 10765 10768 10770 10774 10776 10780 10785 10788 10789 10792 10796 10800 10807 10812 10813 10815 10817 10817 10818 10819 10818 10817 10819 10822 10825 10826 10826 10828 10830 10825 10820 10823 10822 10817 10817 10821
10496 10503 10510 10517 10524 10531 10537 10544 10550 10556 10562 10567 10573 10578 10583 10588 10593 10597 10601 10605 10608 10612 10614 10617 10620 10623 10626 10630 10634 10639 10643 10648 10653 10659 10665 10671 10676 10682 10688 10694 10700 10706 10712 10718 10723 10728 10735 10741 10746 10749 10752 10756 10758 10761 10765 10770 10773 10776 10778 10780 10784 10788 10793 10797 10802 10805 10805 10806 10809 10811 10809 10807 10809 10810 10812 10816 10819 10818 10819 10822 10817 10812 10814 10814 10809 10807 10810
10486 10493 10500 10507 10514 10521 10527 10534 10541 10547 10553 10559 10564 10570 10575 10580 10585 10590 10594 10598 10602 10605 10609 10612 10614 10618 10621 10624 10628 10632 10637 10641 10646 10652 10658 10664 10669 10675 10680 10685 10691 10698 10704 10709 10714 10720 10727 10731 10735 10740 10744 10746 10748 10753 10759 10763 10765 10767 10769 10773 10778 10781 10785 10788 10791 10795 10796 10796 10798 10799 10798 10800 10801 10801 10803 10809 10810 10809 10810 10811 10808 10805 10806 10805 10802 10799 10800
10476 10483 10490 10497 10505 10511 10518 10525 10531 10538 10545 10550 10555 10561 10567 10572 10578 10583 10587 10591 10595 10599 10603 10606 10609 10612 10615 10618 10622 10626 10630 10635 10640 10645 10652 10657 10662 10667 10672 10677 10684 10691 10696 10701 10706 10713 10718 10722 10726 10732 10735 10736 10739 10746 10752 10755 10757 10759 10761 10766 10771 10773 10775 10778 10781 10784 10786 10786 10786 10786 10789 10793 10794 10792 10795 10801 10801 10800 10800 10800 10799 10798 10797 10795 10794 10793 10792
10467 10474 10481 10488 10495 10502 10509 10515 10522 10529 10536 10542 10547 10553 10559 10564 10570 10575 10580 10584 10588 10593 10597 10600 10603 10607 10609 10612 10616 10620 10624 10629 10634 10639 10645 10650 10654 10660 10666 10671 10676 10682 10687 10693 10698 10704 10710 10714 10718 10723 10727 10728 10730 10738 10745 10747 10748 10750 10752 10757 10761 10763 10766 10770 10773 10774 10775 10775 10775 10775 10779 10786 10787 10785 10787 10790 10791 10791 10791 10790 10790 10790 10788 10787 10786 10785 10784
10457 10464 10471 10479 10486 10493 10500 10506 10513 10520 10526 10533 10539 10545 10550 10556 10562 10567 10572 10577 10581 10586 10590 10594 10597 10600 10603 10606 10610 10614 10618 10622 10627 10633 10638 10643 10647 10653 10659 10664 10668 10673 10679 10685 10690 10696 10701 10706 10710 10714 10719 10721 10722 10728 10736 10739 10738 10739 10743 10747 10751 10754 10758 10762 10763 10764 10764 10764 10764 10767 10771 10776 10778 10778 10778 10780 10781 10782 10783 10782 10781 10781 10779 10779 10779 10777 10776
10447 10455 10462 10470 10477 10484 10491 10497 10504 10511 10517 10524 10531 10537 10542 10548 10554 10559 10564 10569 10574 10579 10584 10588 10591 10595 10598 10601 10604 10607 10611 10616 10621 10626 10631 10636 10641 10646 10652 10657 10661 10666 10672 10677 10682 10688 10692 10696 10701 10705 10709 10713 10715 10719 10725 10729 10728 10729 10733 10738 10742 10745 10750 10752 10752 10754 10755 10753 10755 10760 10764 10765 10766 10767 10770 10771 10772 10773 10774 10774 10773 10771 10770 10770 10770 10769 10768
10438 10446 10454 10461 10468 10475 10482 10488 10495 10502 10508 10515 10522 10529 10535 10540 10546 10551 10556 10561 10566 10572 10577 10581 10585 10588 10592 10595 10597 10601 10605 10609 10614 10620 10625 10630 10635 10640 10645 10650 10654 10659 10664 10669 10674 10679 10682 10687 10691 10695 10701 10705 10708 10710 10714 10719 10721 10721 10723 10728 10732 10736 10740 10740 10741 10744 10744 10743 10747 10752 10753 10752 10754 10757 10761 10764 10764 10764 10764 10764 10763 10762 10761 10761 10761 10760 10759
10428 10436 10444 10452 10459 10466 10473 10480 10486 10493 10499 10506 10513 10520 10527 10532 10537 10543 10548 10554 10559 10564 10569 10574 10578 10582 10585 10589 10591 10594 10598 10602 10607 10613 10618 10622 10628 10633 10637 10642 10647 10652 10656 10660 10666 10670 10674 10678 10682 10686 10692 10697 10700 10703 10706 10709 10713 10713 10712 10716 10723 10727 10727 10726 10730 10734 10733 10732 10740 10746 10742 10741 10745 10749 10752 10755 10755 10755 10754 10754 10753 10753 10753 10753 10753 10752 10751
10419 10427 10435 10442 10449 10457 10464 10471 10478 10484 10490 10497 10504 10512 10518 10524 10530 10535 10540 10546 10552 10557 10562 10567 10571 10575 10578 10582 10585 10588 10592 10595 10600 10606 10611 10616 10620 10625 10630 10635 10640 10644 10648 10652 10657 10661 10665 10669 10672 10676 10683 10688 10690 10694 10697 10699 10702 10702 10702 10707 10713 10714 10713 10715 10720 10724 10722 10723 10734 10739 10734 10733 10737 10739 10742 10744 10745 10745 10745 10744 10744 10744 10744 10744 10744 10744 10743
10410 10418 10425 10432 10440 10448 10456 10463 10469 10475 10481 10488 10495 10502 10509 10516 10521 10527 10533 10538 10544 10550 10555 10560 10564 10567 10571 10574 10578 10582 10586 10589 10594 10598 10603 10608 10613 10617 10623 10627 10631 10636 10641 10644 10649 10653 10656 10660 10663 10667 10674 10678 10680 10684 10687 10689 10692 10692 10692 10698 10701 10701 10702 10707 10711 10712 10712 10717 10726 10729 10725 10724 10727 10729 10731 10733 10734 10734 10734 10735 10735 10734 10734 10734 10734 10733 10733
10400 10408 10416 10423 10430 10438 10446 10454 10461 10466 10473 10479 10486 10493 10500 10507 10513 10519 10525 10530 10536 10542 10548 10553 10556 10560 10563 10568 10572 10575 10579 10583 10587 10591 10596 10601 10605 10610 10615 10619 10623 10628 10632 10636 10640 10644 10646 10650 10654 10659 10664 10667 10669 10673 10677 10679 10681 10681 10683 10687 10690 10691 10695 10700 10701 10701 10703 10708 10716 10718 10716 10715 10716 10717 10719 10722 10724 10724 10723 10724 10725 10724 10723 10723 10723 10722 10722
10392 10399 10406 10414 10421 10429 10437 10445 10452 10458 10464 10471 10477 10483 10490 10497 10503 10510 10516 10522 10528 10534 10540 10545 10549 10552 10556 10560 10564 10568 10573 10576 10580 10585 10589 10593 10598 10602 10606 10611 10615 10619 10623 10627 10631 10634 10637 10642 10646 10650 10654 10656 10659 10663 10668 10670 10670 10671 10674 10678 10679 10681 10686 10689 10691 10693 10695 10699 10705 10709 10708 10707 10705 10704 10707 10711 10714 10714 10713 10712 10713 10713 10710 10710 10711 10711 10710
10383 10390 10397 10404 10412 10420 10427 10435 10442 10449 10456 10463 10469 10474 10480 10487 10493 10500 10507 10513 10520 10526 10532 10537 10541 10544 10548 10552 10557 10561 10565 10569 10573 10578 10582 10586 10591 10594 10598 10602 10606 10610 10614 10618 10622 10626 10629 10633 10636 10640 10644 10647 10651 10656 10659 10660 10659 10661 10667 10669 10666 10667 10673 10678 10681 10685 10688 10692 10696 10698 10697 10697 10695 10695 10697 10700 10701 10702 10701 10699 10701 10701 10699 10699 10700 10700 10699
10375 10382 10389 10396 10403 10410 10418 10425 10432 10440 10447 10454 10460 10465 10471 10477 10484 10491 10498 10504 10511 10518 10524 10529 10533 10536 10540 10544 10548 10553 10558 10562 10567 10571 10575 10579 10583 10587 10590 10594 10598 10602 10605 10609 10613 10616 10620 10623 10627 10631 10635 10639 10644 10647 10649 10650 10650 10652 10657 10656 10651 10653 10663 10670 10673 10678 10681 10682 10683 10684 10684 10685 10685 10686 10688 10687 10687 10687 10687 10687 10688 10689 10689 10687 10688 10689 10688
10367 10373 10380 10387 10394 10401 10409 10416 10423 10431 10438 10444 10450 10456 10462 10468 10475 10482 10489 10495 10501 10509 10515 10521 10525 10528 10532 10535 10540 10545 10550 10555 10559 10563 10567 10571 10575 10579 10583 10586 10590 10593 10596 10600 10603 10607 10610 10614 10618 10621 10625 10630 10635 10637 10639 10641 10641 10640 10643 10643 10641 10647 10656 10661 10663 10667 10668 10669 10670 10671 10672 10673 10675 10676 10676 10675 10673 10674 10676 10676 10676 10677 10676 10675 10676 10678 10677
10358 10365 10372 10378 10385 10392 10400 10407 10414 10422 10428 10434 10440 10446 10452 10459 10466 10473 10480 10486 10492 10499 10506 10512 10517 10521 10524 10527 10531 10536 10542 10547 10551 10555 10559 10563 10568 10572 10575 10579 10582 10585 10588 10592 10595 10598 10602 10605 10608 10611 10616 10621 10624 10627 10630 10632 10629 10627 10631 10634 10636 10641 10647 10650 10651 10653 10654 10656 10660 10661 10662 10662 10663 10663 10664 10663 10662 10663 10665 10666 10665 10665 10664 10663 10663 10665 10664
10350 10357 10364 10370 10377 10384 10391 10398 10406 10413 10419 10425 10431 10438 10444 10450 10457 10464 10470 10477 10483 10490 10497 10503 10509 10513 10516 10520 10524 10528 10533 10538 10542 10547 10551 10555 10559 10564 10568 10571 10575 10578 10581 10584 10587 10590 10592 10595 10598 10603 10607 10611 10615 10619 10621 10618 10615 10616 10621 10626 10628 10631 10634 10637 10639 10641 10642 10645 10648 10651 10652 10652 10651 10650 10651 10652 10652 10652 10653 10654 10654 10654 10653 10651 10649 10650 10651
10342 10349 10356 10363 10369 10375 10382 10389 10397 10404 10409 10415 10422 10428 10434 10441 10447 10454 10461 10467 10474 10480 10487 10494 10500 10504 10508 10513 10516 10519 10524 10528 10533 10538 10542 10547 10551 10555 10559 10563 10567 10571 10574 10577 10580 10581 10583 10586 10590 10594 10598 10601 10606 10608 10606 10603 10603 10608 10613 10615 10617 10620 10622 10624 10626 10628 10630 10633 10636 10638 10640 10641 10641 10640 10639 10639 10640 10641 10641 10642 10642 10643 10642 10639 10638 10638 10638
10334 10341 10348 10354 10360 10367 10373 10380 10388 10394 10400 10405 10412 10418 10425 10432 10438 10445 10451 10458 10464 10470 10477 10484 10490 10495 10500 10505 10508 10512 10516 10520 10524 10529 10534 10538 10542 10546 10550 10554 10559 10563 10566 10569 10572 10572 10574 10577 10582 10587 10589 10592 10595 10594 10592 10592 10595 10599 10602 10605 10607 10609 10610 10611 10614 10616 10619 10621 10624 10626 10628 10630 10631 10631 10629 10627 10626 10627 10629 10629 10630 10630 10630 10628 10625 10626 10628
10327 10334 10340 10346 10352 10359 10366 10372 10379 10385 10390 10396 10403 10409 10416 10423 10429 10436 10443 10449 10455 10461 10468 10475 10481 10486 10492 10497 10500 10504 10509 10512 10515 10520 10525 10529 10533 10537 10541 10545 10550 10554 10557 10561 10562 10563 10565 10570 10575 10578 10581 10582 10582 10581 10582 10584 10586 10588 10591 10594 10596 10598 10600 10602 10603 10606 10608 10609 10611 10614 10616 10618 10620 10621 10620 10618 10616 10614 10615 10616 10617 10617 10618 10616 10613 10613 10616
10320 10326 10332 10338 10344 10351 10357 10363 10369 10375 10382 10388 10394 10401 10408 10414 10421 10427 10434 10440 10446 10452 10458 10465 10471 10477 10483 10488 10492 10496 10501 10504 10507 10511 10515 10519 10523 10527 10531 10536 10540 10544 10548 10551 10551 10554 10558 10562 10565 10569 10571 10570 10569 10571 10572 10573 10575 10577 10580 10583 10586 10589 10592 10594 10595 10597 10598 10598 10599 10601 10604 10606 10607 10608 10608 10608 10607 10604 10604 10604 10604 10605 10605 10604 10603 10602 10603
10314 10319 10325 10331 10337 10343 10348 10354 10360 10367 10373 10379 10386 10393 10399 10405 10412 10418 10424 10431 10437 10443 10449 10455 10461 10467 10473 10478 10483 10487 10492 10496 10499 10503 10506 10509 10514 10518 10522 10526 10531 10534 10538 10540 10541 10545 10550 10553 10555 10559 10560 10559 10559 10561 10561 10559 10562 10567 10570 10574 10578 10581 10583 10585 10586 10587 10587 10587 10587 10588 10591 10593 10594 10595 10595 10596 10596 10595 10593 10592 10592 10593 10592 10592 10592 10591 10590
10307 10313 10318 10324 10329 10335 10340 10345 10351 10358 10365 10371 10378 10384 10390 10397 10403 10409 10416 10422 10428 10434 10440 10446 10452 10458 10464 10469 10474 10479 10483 10487 10491 10494 10497 10501 10505 10508 10512 10516 10520 10525 10528 10530 10532 10535 10540 10544 10547 10549 10548 10547 10549 10549 10546 10545 10551 10559 10563 10567 10571 10573 10574 10575 10575 10575 10575 10576 10576 10577 10579 10580 10581 10582 10582 10583 10584 10584 10583 10580 10579 10579 10578 10578 10578 10578 10577
10301 10306 10312 10317 10322 10327 10332 10337 10344 10350 10357 10363 10369 10375 10382 10388 10394 10400 10407 10413 10419 10425 10431 10437 10443 10449 10455 10460 10465 10470 10474 10479 10482 10486 10489 10493 10496 10499 10503 10506 10510 10515 10519 10520 10522 10525 10531 10535 10537 10536 10535 10536 10538 10537 10533 10536 10545 10553 10557 10559 10561 10562 10562 10562 10562 10562 10563 10564 10566 10567 10568 10568 10569 10570 10570 10570 10570 10571 10570 10569 10567 10565 10564 10564 10564 10564 10563
10296 10301 10306 10311 10316 10321 10326 10331 10337 10344 10350 10356 10362 10368 10374 10380 10385 10391 10398 10403 10409 10416 10422 10428 10434 10439 10445 10451 10456 10460 10465 10469 10473 10477 10481 10484 10487 10491 10494 10496 10500 10505 10508 10509 10512 10516 10520 10523 10523 10521 10522 10525 10527 10528 10529 10534 10540 10543 10544 10545 10545 10546 10547 10548 10549 10550 10552 10553 10555 10557 10557 10557 10557 10558 10558 10558 10557 10556 10555 10555 10554 10552 10551 10551 10550 10549 10549
10291 10296 10301 10306 10310 10315 10320 10326 10332 10338 10344 10349 10355 10360 10365 10371 10376 10382 10389 10394 10401 10407 10413 10419 10424 10430 10436 10442 10447 10451 10455 10460 10464 10469 10472 10475 10479 10483 10486 10488 10491 10495 10497 10499 10502 10506 10508 10509 10508 10508 10512 10517 10520 10521 10523 10526 10526 10526 10526 10527 10528 10531 10535 10537 10539 10540 10541 10542 10544 10546 10546 10545 10545 10546 10546 10546 10545 10543 10541 10539 10538 10538 10538 10537 10536 10536 10535
10288 10292 10296 10301 10305 10310 10315 10321 10327 10332 10336 10341 10346 10352 10357 10363 10368 10374 10380 10386 10392 10398 10404 10409 10415 10420 10426 10432 10437 10442 10446 10451 10456 10460 10464 10467 10470 10474 10477 10479 10482 10485 10487 10490 10493 10494 10495 10496 10497 10499 10503 10508 10510 10510 10510 10510 10511 10513 10514 10514 10516 10519 10524 10526 10528 10530 10530 10530 10532 10533 10534 10534 10533 10534 10534 10534 10533 10531 10529 10526 10524 10523 10524 10524 10523 10522 10522
10284 10288 10292 10296 10300 10305 10310 10315 10320 10324 10329 10334 10340 10345 10350 10356 10362 10367 10373 10379 10384 10389 10394 10399 10404 10410 10416 10422 10428 10433 10438 10443 10447 10451 10455 10458 10461 10465 10468 10470 10473 10476 10478 10481 10482 10483 10484 10486 10488 10491 10493 10496 10496 10497 10497 10498 10499 10501 10502 10502 10503 10505 10509 10512 10514 10516 10517 10517 10518 10520 10521 10521 10520 10520 10520 10520 10520 10518 10516 10514 10512 10512 10511 10511 10511 10510 10509
10280 10283 10287 10291 10295 10300 10305 10309 10314 10318 10323 10328 10334 10339 10344 10349 10355 10360 10365 10370 10375 10379 10384 10389 10395 10401 10407 10413 10420 10425 10430 10434 10438 10442 10446 10450 10453 10456 10458 10462 10465 10467 10469 10470 10472 10474 10475 10478 10480 10482 10484 10484 10483 10484 10484 10485 10485 10486 10488 10488 10490 10492 10495 10498 10500 10502 10503 10504 10504 10505 10507 10507 10506 10506 10506 10505 10505 10504 10503 10502 10501 10500 10500 10500 10500 10499 10498
10277 10280 10284 10288 10292 10297 10300 10304 10308 10313 10319 10324 10329 10333 10338 10343 10348 10353 10357 10362 10367 10372 10377 10382 10388 10394 10400 10406 10412 10417 10421 10426 10430 10434 10437 10441 10444 10447 10450 10454 10456 10457 10459 10462 10465 10467 10468 10470 10471 10473 10473 10473 10472 10471 10470 10470 10470 10473 10475 10477 10479 10480 10482 10485 10487 10488 10489 10489 10489 10490 10491 10492 10492 10491 10491 10490 10490 10490 10490 10490 10489 10489 10489 10489 10488 10487 10487
10274 10278 10281 10285 10290 10293 10297 10300 10305 10310 10315 10319 10324 10328 10333 10338 10343 10348 10353 10358 10362 10367 10372 10377 10383 10389 10394 10400 10405 10409 10414 10418 10423 10426 10429 10433 10437 10440 10442 10445 10446 10449 10453 10456 10458 10459 10460 10461 10462 10462 10462 10463 10462 10461 10459 10458 10458 10461 10463 10465 10466 10467 10468 10470 10472 10473 10473 10473 10473 10475 10476 10477 10476 10476 10477 10477 10477 10478 10478 10478 10478 10478 10477 10476 10475 10475 10475
10273 10276 10280 10284 10287 10291 10294 10298 10303 10308 10311 10315 10320 10324 10329 10334 10339 10343 10349 10354 10359 10363 10368 10373 10379 10384 10389 10393 10398 10402 10407 10412 10416 10419 10423 10426 10430 10432 10434 10437 10440 10444 10447 10449 10450 10451 10452 10452 10452 10453 10454 10454 10453 10451 10449 10448 10448 10449 10451 10451 10452 10454 10455 10456 10457 10457 10457 10458 10459 10461 10462 10463 10463 10464 10465 10466 10466 10466 10467 10467 10466 10466 10465 10464 10464 10465 10465
10272 10275 10279 10282 10286 10289 10293 10297 10301 10305 10309 10313 10318 10322 10326 10331 10335 10340 10344 10349 10354 10358 10363 10368 10373 10378 10383 10387 10392 10397 10401 10406 10410 10413 10417 10420 10422 10425 10428 10432 10435 10437 10439 10441 10442 10444 10444 10444 10445 10446 10446 10445 10444 10442 10441 10439 10438 10439 10439 10439 10440 10441 10442 10443 10444 10445 10446 10447 10449 10451 10453 10453 10453 10454 10455 10456 10456 10456 10457 10457 10457 10456 10456 10455 10455 10456 10456
10272 10275 10278 10282 10285 10289 10293 10297 10300 10303 10307 10311 10315 10320 10324 10328 10332 10336 10341 10345 10349 10354 10358 10363 10368 10373 10378 10383 10388 10392 10397 10401 10404 10408 10411 10414 10417 10420 10423 10426 10429 10430 10432 10434 10436 10436 10436 10437 10438 10439 10438 10437 10435 10434 10433 10432 10431 10430 10430 10430 10430 10431 10432 10434 10435 10437 10438 10440 10441 10443 10445 10445 10446 10446 10447 10447 10448 10448 10448 10448 10448 10448 10448 10448 10448 10448 10447
10272 10275 10278 10281 10285 10288 10292 10295 10298 10301 10305 10309 10313 10317 10321 10325 10329 10333 10338 10342 10346 10351 10355 10360 10365 10370 10375 10379 10384 10388 10392 10396 10400 10403 10407 10410 10413 10416 10418 10420 10422 10424 10426 10428 10428 10429 10430 10431 10431 10431 10431 10430 10429 10428 10426 10425 10424 10424 10424 10424 10424 10424 10426 10427 10428 10430 10432 10434 10435 10436 10437 10438 10439 10439 10440 10440 10441 10442 10442 10442 10442 10442 10441 10441 10440 10439 10439